Weather History for Meacham, OR

Change the Weather History Date:

Wednesday, October 17, 2012

  Actual Average Record
Temperature  
Mean Temperature 40 °F -  
Max Temperature 51 °F 55 °F 73 °F (2003)
Min Temperature 28 °F 26 °F 16 °F (1996)
Degree Days  
Heating Degree Days 26    
Moisture  
Dew Point 31 °F    
Average Humidity 74    
Maximum Humidity 96    
Minimum Humidity 43    
Precipitation  
Precipitation 0.00 in - - ()
Sea Level Pressure  
Sea Level Pressure 30.26 in    
Wind  
Wind Speed 0 mph (North)    
Max Wind Speed 5 mph    
Max Gust Speed -    
Visibility 10 miles    
Events      
Averages and records for this station are not official NWS values.
T = Trace of Precipitation, MM = Missing Value Source: NWS Daily Summary

Daily Weather History Graph

Daily Weather History Graph

Search for Another Location

Airport:

Trip Planner

Search our weather history database for the weather conditions in past years. The results will help you decide how hot, cold, wet, or windy it might be!

Date:

Astronomy

Oct. 17, 2012 Rise Set
Actual Time 7:13 AM PDT 6:03 PM PDT
Civil Twilight 6:43 AM PDT 6:33 PM PDT
Nautical Twilight 6:09 AM PDT 7:07 PM PDT
Astronomical Twilight 5:34 AM PDT 7:42 PM PDT
Moon 10:02 AM PDT (10/17) 7:34 PM PDT (10/17)
Length of Visible Light 11h 50m
Length of Day
10h 50m
Waxing Crescent, 8% of the Moon is Illuminated
Oct 17
Waxing Crescent
Oct 21
First Quarter
Oct 29
Full
Nov 6
Last Quarter
Nov 13
New

Hourly Weather History & Observations

Time (PDT) Temp. Windchill Dew Point Humidity Pressure Visibility Wind Dir Wind Speed Gust Speed Precip Events Conditions
12:56 AM 37.0 °F - 32.0 °F 82% 30.23 in 10.0 mi Calm Calm - N/A   Mostly Cloudy
1:34 AM 37.4 °F - 32.0 °F 81% 30.21 in 10.0 mi Calm Calm - N/A   Mostly Cloudy
1:49 AM 37.4 °F - 32.0 °F 81% 30.22 in 10.0 mi Calm Calm - N/A   Mostly Cloudy
1:56 AM 37.0 °F - 32.0 °F 82% 30.25 in 10.0 mi Calm Calm - N/A   Mostly Cloudy
2:56 AM 39.0 °F - 33.1 °F 79% 30.25 in 10.0 mi Calm Calm - N/A   Overcast
3:56 AM 39.0 °F - 33.1 °F 79% 30.24 in 10.0 mi Calm Calm - N/A   Overcast
4:56 AM 37.9 °F 34.4 °F 33.1 °F 83% 30.25 in 10.0 mi Variable 4.6 mph - N/A   Overcast
5:37 AM 37.4 °F - 33.8 °F 87% 30.22 in 10.0 mi Calm Calm - N/A   Overcast
5:56 AM 37.9 °F 35.5 °F 33.1 °F 83% 30.25 in 10.0 mi Variable 3.5 mph - N/A   Overcast
6:12 AM 37.4 °F 34.9 °F 33.8 °F 87% 30.22 in 10.0 mi Variable 3.5 mph - N/A   Overcast
6:56 AM 37.9 °F - 33.1 °F 83% 30.26 in 10.0 mi Calm Calm - N/A   Overcast
7:56 AM 37.0 °F - 32.0 °F 82% 30.28 in 10.0 mi Calm Calm - N/A   Mostly Cloudy
8:25 AM 37.4 °F - 33.8 °F 87% 30.24 in 10.0 mi Calm Calm - N/A   Scattered Clouds
8:44 AM 39.2 °F - 32.0 °F 75% 30.25 in 10.0 mi Calm Calm - N/A   Mostly Cloudy
8:56 AM 39.0 °F - 32.0 °F 76% 30.30 in 10.0 mi Calm Calm - N/A   Mostly Cloudy
9:56 AM 42.1 °F - 32.0 °F 67% 30.29 in 10.0 mi Calm Calm - N/A   Mostly Cloudy
10:03 AM 42.8 °F - 32.0 °F 66% 30.24 in 10.0 mi Calm Calm - N/A   Scattered Clouds
10:56 AM 45.0 °F - 30.9 °F 58% 30.29 in 10.0 mi Calm Calm - N/A   Partly Cloudy
11:56 AM 46.9 °F - 30.9 °F 54% 30.28 in 10.0 mi Calm Calm - N/A   Clear
12:56 PM 48.9 °F - 27.0 °F 43% 30.28 in 10.0 mi Calm Calm - N/A   Clear
1:56 PM 50.0 °F - 28.0 °F 43% 30.25 in 10.0 mi Variable 3.5 mph - N/A   Clear
2:56 PM 51.1 °F - 28.9 °F 43% 30.25 in 10.0 mi Calm Calm - N/A   Clear
3:56 PM 51.1 °F - 30.0 °F 44% 30.25 in 10.0 mi Calm Calm - N/A   Clear
4:56 PM 48.9 °F - 30.0 °F 48% 30.25 in 10.0 mi Calm Calm - N/A   Clear
5:56 PM 44.1 °F - 33.1 °F 65% 30.27 in 10.0 mi Calm Calm - N/A   Clear
6:56 PM 39.0 °F - 32.0 °F 76% 30.29 in 10.0 mi Calm Calm - N/A   Clear
7:56 PM 35.1 °F - 30.9 °F 85% 30.31 in 10.0 mi Calm Calm - N/A   Clear
8:56 PM 32.0 °F - 30.0 °F 92% 30.30 in 10.0 mi Calm Calm - N/A   Clear
9:56 PM 30.0 °F - 28.0 °F 92% 30.31 in 10.0 mi Calm Calm - N/A   Clear
10:56 PM 28.9 °F - 27.0 °F 92% 30.31 in 10.0 mi Calm Calm - N/A   Clear
11:56 PM 28.0 °F - 27.0 °F 96% 30.30 in 10.0 mi Calm Calm - N/A   Clear